Weather History for KEIK - December, 2013

Change the Weather History Date:

Sunday, December 1, 2013

  Actual Average (KBJC) Record (KBJC)
Temperature  
Mean Temperature 40 °F -  
Max Temperature 56 °F 45 °F 71 °F (1998)
Min Temperature 23 °F 27 °F -7 °F (1985)
Degree Days  
Heating Degree Days 26    
Moisture  
Dew Point 21 °F    
Average Humidity 50    
Maximum Humidity 89    
Minimum Humidity 21    
Precipitation  
Precipitation 0.00 in - - ()
Sea Level Pressure  
Sea Level Pressure 30.01 in    
Wind  
Wind Speed 3 mph (West)    
Max Wind Speed 18 mph    
Max Gust Speed 30 mph    
Visibility 10 miles    
Events      
Averages and records for this station are not official NWS values.
T = Trace of Precipitation, MM = Missing Value Source: NWS Daily Summary

Daily Weather History Graph

Daily Weather History Graph

Search for Another Location

Airport or City:

Trip Planner

Search our weather history database for the weather conditions in past years. The results will help you decide how hot, cold, wet, or windy it might be!

Date:

Astronomy

Dec. 01, 2013 Rise Set
Actual Time 7:03 AM MST 4:35 PM MST
Civil Twilight 6:33 AM MST 5:05 PM MST
Nautical Twilight 5:59 AM MST 5:39 PM MST
Astronomical Twilight 5:26 AM MST 6:11 PM MST
Moon 5:24 AM MST (12/1) 3:47 PM MST (12/1)
Length of Visible Light 10h 32m
Length of Day
9h 32m
Waning Crescent, 2% of the Moon is Illuminated
Dec 1
Waning Crescent
Dec 2
New
Dec 9
First Quarter
Dec 17
Full
Dec 25
Last Quarter

Hourly Weather History & Observations

Time (MST) Temp. Windchill Dew Point Humidity Pressure Visibility Wind Dir Wind Speed Gust Speed Precip Events Conditions
12:14 AM 26.1 °F - 20.5 °F 79% 30.15 in 10.0 mi Calm Calm - N/A   Clear
12:34 AM 26.4 °F - 21.4 °F 81% 30.15 in 10.0 mi Calm Calm - N/A   Clear
12:54 AM 26.4 °F - 20.7 °F 79% 30.14 in 10.0 mi Calm Calm - N/A   Clear
1:14 AM 24.4 °F - 19.8 °F 82% 30.13 in 10.0 mi Calm Calm - N/A   Clear
1:34 AM 23.5 °F 19.1 °F 20.3 °F 87% 30.13 in 10.0 mi SSW 3.5 mph - N/A   Clear
1:54 AM 25.5 °F - 20.8 °F 82% 30.13 in 10.0 mi Calm Calm - N/A   Clear
2:14 AM 27.0 °F 23.0 °F 21.2 °F 79% 30.13 in 10.0 mi SSW 3.5 mph - N/A   Clear
2:34 AM 25.0 °F 20.7 °F 20.7 °F 84% 30.13 in 10.0 mi South 3.5 mph - N/A   Clear
2:54 AM 24.6 °F 18.8 °F 21.0 °F 86% 30.12 in 10.0 mi WSW 4.6 mph - N/A   Clear
3:14 AM 24.6 °F - 21.2 °F 87% 30.12 in 10.0 mi Calm Calm - N/A   Clear
3:34 AM 25.7 °F 21.5 °F 21.4 °F 84% 30.11 in 10.0 mi SSE 3.5 mph - N/A   Clear
3:54 AM 24.6 °F - 20.8 °F 86% 30.11 in 10.0 mi Calm Calm - N/A   Clear
4:14 AM 23.7 °F 17.8 °F 20.5 °F 87% 30.11 in 10.0 mi SSW 4.6 mph - N/A   Clear
4:34 AM 25.2 °F - 21.9 °F 87% 30.10 in 10.0 mi Calm Calm - N/A   Clear
4:54 AM 25.5 °F - 21.9 °F 86% 30.11 in 10.0 mi Calm Calm - N/A   Clear
5:14 AM 26.2 °F - 22.8 °F 87% 30.10 in 10.0 mi Calm Calm - N/A   Clear
5:34 AM 27.5 °F - 23.2 °F 84% 30.11 in 10.0 mi Calm Calm - N/A   Clear
5:54 AM 27.1 °F - 23.0 °F 84% 30.11 in 10.0 mi Calm Calm - N/A   Clear
6:14 AM 27.3 °F - 23.2 °F 84% 30.12 in 10.0 mi Calm Calm - N/A   Clear
6:34 AM 26.2 °F 22.1 °F 22.5 °F 86% 30.12 in 10.0 mi SE 3.5 mph - N/A   Clear
6:54 AM 26.2 °F 20.7 °F 22.5 °F 86% 30.11 in 10.0 mi South 4.6 mph - N/A   Clear
7:14 AM 24.8 °F - 21.9 °F 89% 30.11 in 10.0 mi Calm Calm - N/A   Clear
7:34 AM 26.1 °F - 23.0 °F 88% 30.12 in 10.0 mi Calm Calm - N/A   Scattered Clouds
7:54 AM 25.9 °F - 22.1 °F 86% 30.13 in 10.0 mi Calm Calm - N/A   Clear
8:14 AM 27.7 °F 21.3 °F 24.1 °F 86% 30.14 in 10.0 mi ENE 5.8 mph - N/A   Clear
8:34 AM 32.2 °F - 25.7 °F 77% 30.14 in 10.0 mi Calm Calm - N/A   Clear
8:54 AM 34.9 °F 32.0 °F 25.7 °F 69% 30.14 in 10.0 mi SW 3.5 mph - N/A   Clear
9:14 AM 38.8 °F - 26.6 °F 61% 30.15 in 10.0 mi Calm Calm - N/A   Clear
9:34 AM 42.3 °F - 25.7 °F 52% 30.15 in 10.0 mi Calm Calm - N/A   Clear
9:54 AM 45.3 °F 44.0 °F 25.9 °F 47% 30.14 in 10.0 mi ENE 3.5 mph - N/A   Clear
10:14 AM 47.3 °F - 25.0 °F 42% 30.13 in 10.0 mi Calm Calm - N/A   Clear
10:34 AM 50.9 °F - 20.7 °F 30% 30.11 in 10.0 mi Calm Calm - N/A   Clear
10:54 AM 52.7 °F - 22.1 °F 30% 30.09 in 10.0 mi Calm Calm - N/A   Clear
11:14 AM 53.6 °F - 19.4 °F 26% 30.09 in 10.0 mi Calm Calm - N/A   Clear
11:34 AM 55.4 °F - 19.6 °F 25% 30.07 in 10.0 mi NNW 6.9 mph - N/A   Clear
11:54 AM 55.2 °F - 18.5 °F 24% 30.05 in 10.0 mi NNW 3.5 mph - N/A   Clear
12:14 PM 55.9 °F - 18.0 °F 23% 30.04 in 10.0 mi NW 5.8 mph - N/A   Clear
12:34 PM 55.6 °F - 17.2 °F 22% 30.01 in 10.0 mi Calm Calm - N/A   Clear
12:54 PM 56.5 °F - 18.3 °F 23% 30.00 in 10.0 mi SSW 4.6 mph - N/A   Clear
1:14 PM 54.0 °F - 17.1 °F 23% 29.98 in 10.0 mi SW 15.0 mph 18.4 mph N/A   Clear
1:34 PM 53.8 °F - 17.1 °F 24% 29.97 in 10.0 mi West 10.4 mph - N/A   Clear
1:54 PM 53.2 °F - 18.0 °F 25% 29.96 in 10.0 mi WSW 10.4 mph 16.1 mph N/A   Clear
2:14 PM 53.4 °F - 18.5 °F 25% 29.97 in 10.0 mi NW 5.8 mph - N/A   Clear
2:34 PM 52.7 °F - 19.2 °F 27% 29.96 in 10.0 mi NNW 4.6 mph - N/A   Clear
2:54 PM 53.8 °F - 18.3 °F 25% 29.95 in 10.0 mi Calm Calm - N/A   Clear
3:14 PM 55.9 °F - 15.6 °F 21% 29.96 in 10.0 mi Calm Calm - N/A   Clear
3:34 PM 55.9 °F - 16.2 °F 21% 29.94 in 10.0 mi WSW 4.6 mph - N/A   Clear
3:54 PM 54.7 °F - 16.5 °F 22% 29.92 in 10.0 mi West 13.8 mph - N/A   Clear
4:14 PM 54.5 °F - 15.1 °F 21% 29.91 in 10.0 mi WSW 13.8 mph 20.7 mph N/A   Clear
4:34 PM 53.6 °F - 14.9 °F 22% 29.90 in 10.0 mi SW 10.4 mph 18.4 mph N/A   Clear
4:54 PM 53.4 °F - 14.7 °F 22% 29.90 in 10.0 mi West 6.9 mph - N/A   Clear
5:14 PM 52.7 °F - 14.5 °F 22% 29.90 in 10.0 mi Calm Calm - N/A   Clear
5:34 PM 52.7 °F - 15.3 °F 23% 29.88 in 10.0 mi SSW 9.2 mph 18.4 mph N/A   Clear
5:54 PM 52.5 °F - 15.8 °F 23% 29.88 in 10.0 mi SE 4.6 mph - N/A   Clear
6:14 PM 51.6 °F - 16.2 °F 25% 29.87 in 10.0 mi Calm Calm - N/A   Clear
6:34 PM 48.6 °F - 17.4 °F 29% 29.88 in 10.0 mi North 3.5 mph - N/A   Clear
6:54 PM 52.5 °F - 20.5 °F 29% 29.88 in 10.0 mi NNW 12.7 mph 26.5 mph N/A   Clear
7:14 PM 49.1 °F - 20.5 °F 32% 29.88 in 10.0 mi North 8.1 mph - N/A   Scattered Clouds
7:34 PM 50.4 °F - 20.5 °F 31% 29.86 in 10.0 mi NNE 8.1 mph 20.7 mph N/A   Overcast
7:54 PM 50.0 °F - 21.0 °F 32% 29.85 in 10.0 mi South 3.5 mph - N/A   Mostly Cloudy
8:14 PM 48.9 °F - 21.2 °F 34% 29.86 in 10.0 mi SSW 4.6 mph - N/A   Mostly Cloudy
8:34 PM 48.4 °F - 21.7 °F 35% 29.87 in 10.0 mi Calm Calm - N/A   Mostly Cloudy
8:54 PM 48.7 °F - 22.5 °F 36% 29.86 in 10.0 mi Calm Calm - N/A   Mostly Cloudy
9:14 PM 47.7 °F - 22.3 °F 37% 29.86 in 10.0 mi NNE 5.8 mph - N/A   Mostly Cloudy
9:34 PM 49.1 °F - 22.1 °F 35% 29.85 in 10.0 mi NNE 12.7 mph - N/A   Scattered Clouds
9:54 PM 49.3 °F - 22.8 °F 35% 29.86 in 10.0 mi SSW 10.4 mph 16.1 mph N/A   Scattered Clouds
10:14 PM 46.9 °F - 23.4 °F 40% 29.86 in 10.0 mi West 9.2 mph - N/A   Scattered Clouds
10:34 PM 50.0 °F - 21.7 °F 33% 29.87 in 10.0 mi NNW 10.4 mph 18.4 mph N/A   Scattered Clouds
10:54 PM 52.2 °F - 22.1 °F 31% 29.88 in 10.0 mi NNW 18.4 mph 25.3 mph N/A   Clear
11:14 PM 51.4 °F - 22.5 °F 32% 29.89 in 10.0 mi NNW 13.8 mph 21.9 mph N/A   Scattered Clouds
11:34 PM 51.4 °F - 22.3 °F 32% 29.88 in 10.0 mi NNW 12.7 mph 24.2 mph N/A   Scattered Clouds
11:54 PM 50.5 °F - 22.6 °F 34% 29.86 in 10.0 mi NNW 17.3 mph 29.9 mph N/A   Clear